PRIVATE WETTERSTATION BILLIGHEIM-ALLFELD                       ZURCK
Wetterdaten: Freitag, 11.08.2017
Datum Zeit Temp. A. Temp. A. min Temp. A. max Feuchte A. Luftdruck Regen Wind Richtung Richtung Sonnenschein ET Solar Taupunkt Windchill Windben Empfang
11.08.2017 00:00 12,9 C 12,9 C 12,9 C 90 % 1017,4 hPa 0,0 l/m 2,8 km/h (1 Bft) W-SW 253 0 min 0,000 mm 0 W/m 11,3 C 12,9 C 11,3 km/h (2 Bft) 100 %
11.08.2017 00:10 12,9 C 12,9 C 12,9 C 90 % 1017,4 hPa 12,4 l/m 3,4 km/h (1 Bft) W 259 0 min 0,330 mm 0 W/m 11,3 C 12,9 C 14,5 km/h (3 Bft) 100 %
11.08.2017 00:20 12,9 C 12,9 C 12,9 C 90 % 1017,4 hPa 0,0 l/m 1,0 km/h (0 Bft) W 278 0 min 0,000 mm 0 W/m 11,3 C 12,9 C 6,4 km/h (2 Bft) 99 %
11.08.2017 00:30 12,9 C 12,9 C 12,9 C 90 % 1017,4 hPa 0,0 l/m 0,8 km/h (0 Bft) W-SW 252 0 min 0,000 mm 0 W/m 11,3 C 12,9 C 8,0 km/h (2 Bft) 100 %
11.08.2017 00:40 12,9 C 12,9 C 12,9 C 90 % 1017,6 hPa 0,0 l/m 0,4 km/h (0 Bft) W-SW 247 0 min 0,000 mm 0 W/m 11,3 C 12,9 C 6,4 km/h (2 Bft) 100 %
11.08.2017 00:50 12,9 C 12,9 C 12,9 C 90 % 1017,5 hPa 0,0 l/m 0,0 km/h (0 Bft) W-SW 244 0 min 0,000 mm 0 W/m 11,3 C 12,9 C 0,0 km/h (0 Bft) 100 %
11.08.2017 01:00 12,9 C 12,9 C 12,9 C 90 % 1017,4 hPa 0,0 l/m 0,5 km/h (0 Bft) SW 236 0 min 0,000 mm 0 W/m 11,3 C 12,9 C 4,8 km/h (1 Bft) 100 %
11.08.2017 01:10 12,9 C 12,9 C 12,9 C 90 % 1017,3 hPa 0,0 l/m 0,3 km/h (0 Bft) SW 236 0 min 0,000 mm 0 W/m 11,3 C 12,9 C 3,2 km/h (1 Bft) 100 %
11.08.2017 01:20 12,9 C 12,9 C 12,9 C 90 % 1017,1 hPa 0,0 l/m 0,4 km/h (0 Bft) W 262 0 min 0,000 mm 0 W/m 11,3 C 12,9 C 8,0 km/h (2 Bft) 100 %
11.08.2017 01:30 12,9 C 12,9 C 12,9 C 90 % 1016,8 hPa 0,0 l/m 0,5 km/h (0 Bft) W 266 0 min 0,000 mm 0 W/m 11,3 C 12,9 C 6,4 km/h (2 Bft) 100 %
11.08.2017 01:40 12,9 C 12,9 C 12,9 C 90 % 1016,6 hPa 0,0 l/m 3,0 km/h (1 Bft) W-SW 244 0 min 0,000 mm 0 W/m 11,3 C 12,9 C 9,7 km/h (2 Bft) 100 %
11.08.2017 01:50 12,9 C 12,9 C 12,9 C 90 % 1016,3 hPa 0,0 l/m 0,2 km/h (0 Bft) W-SW 256 0 min 0,000 mm 0 W/m 11,3 C 12,9 C 6,4 km/h (2 Bft) 100 %
11.08.2017 02:00 12,9 C 12,9 C 12,9 C 90 % 1016,5 hPa 0,0 l/m 0,1 km/h (0 Bft) W-SW 255 0 min 0,000 mm 0 W/m 11,3 C 12,9 C 4,8 km/h (1 Bft) 100 %
11.08.2017 02:10 12,9 C 12,9 C 12,9 C 90 % 1016,8 hPa 0,0 l/m 1,3 km/h (1 Bft) W-SW 245 0 min 0,000 mm 0 W/m 11,3 C 12,9 C 8,0 km/h (2 Bft) 100 %
11.08.2017 02:20 12,9 C 12,9 C 12,9 C 90 % 1016,7 hPa 0,0 l/m 3,4 km/h (1 Bft) SW 217 0 min 0,000 mm 0 W/m 11,3 C 12,9 C 9,7 km/h (2 Bft) 100 %
11.08.2017 02:30 12,9 C 12,9 C 12,9 C 90 % 1016,9 hPa 0,0 l/m 4,4 km/h (1 Bft) SW 227 0 min 0,000 mm 0 W/m 11,3 C 12,9 C 14,5 km/h (3 Bft) 99 %
11.08.2017 02:40 12,9 C 12,9 C 12,9 C 90 % 1016,9 hPa 0,0 l/m 3,0 km/h (1 Bft) W-SW 254 0 min 0,000 mm 0 W/m 11,3 C 12,9 C 9,7 km/h (2 Bft) 100 %
11.08.2017 02:50 12,9 C 12,9 C 12,9 C 90 % 1016,4 hPa 0,0 l/m 4,7 km/h (1 Bft) W-SW 258 0 min 0,000 mm 0 W/m 11,3 C 12,9 C 11,3 km/h (2 Bft) 100 %
11.08.2017 03:00 12,8 C 12,8 C 12,9 C 90 % 1016,3 hPa 0,0 l/m 1,8 km/h (1 Bft) W-SW 240 0 min 0,000 mm 0 W/m 11,2 C 12,8 C 8,0 km/h (2 Bft) 100 %
11.08.2017 03:10 12,8 C 12,8 C 12,9 C 90 % 1016,6 hPa 0,0 l/m 4,3 km/h (1 Bft) SW 226 0 min 0,000 mm 0 W/m 11,2 C 12,8 C 11,3 km/h (2 Bft) 100 %
11.08.2017 03:20 12,8 C 12,8 C 12,8 C 90 % 1016,4 hPa 0,0 l/m 2,7 km/h (1 Bft) SW 225 0 min 0,000 mm 0 W/m 11,2 C 12,8 C 8,0 km/h (2 Bft) 100 %
11.08.2017 03:30 12,8 C 12,8 C 12,9 C 90 % 1016,6 hPa 0,0 l/m 2,2 km/h (1 Bft) SW 234 0 min 0,000 mm 0 W/m 11,2 C 12,8 C 8,0 km/h (2 Bft) 100 %
11.08.2017 03:40 12,8 C 12,8 C 12,8 C 90 % 1016,7 hPa 0,0 l/m 1,7 km/h (1 Bft) SW 236 0 min 0,000 mm 0 W/m 11,2 C 12,8 C 9,7 km/h (2 Bft) 100 %
11.08.2017 03:50 12,8 C 12,8 C 12,8 C 90 % 1016,5 hPa 0,0 l/m 1,0 km/h (0 Bft) S-SW 208 0 min 0,000 mm 0 W/m 11,2 C 12,8 C 6,4 km/h (2 Bft) 100 %
11.08.2017 04:00 12,7 C 12,7 C 12,8 C 90 % 1016,3 hPa 0,0 l/m 3,1 km/h (1 Bft) W 259 0 min 0,000 mm 0 W/m 11,1 C 12,7 C 8,0 km/h (2 Bft) 100 %
11.08.2017 04:10 12,7 C 12,7 C 12,7 C 90 % 1016,1 hPa 0,0 l/m 2,6 km/h (1 Bft) W-SW 254 0 min 0,000 mm 0 W/m 11,1 C 12,7 C 8,0 km/h (2 Bft) 100 %
11.08.2017 04:20 12,7 C 12,7 C 12,7 C 90 % 1016,1 hPa 0,0 l/m 4,2 km/h (1 Bft) W-SW 257 0 min 0,000 mm 0 W/m 11,1 C 12,7 C 11,3 km/h (2 Bft) 100 %
11.08.2017 04:30 12,6 C 12,6 C 12,7 C 90 % 1015,8 hPa 0,0 l/m 4,6 km/h (1 Bft) W 265 0 min 0,000 mm 0 W/m 11,0 C 12,6 C 14,5 km/h (3 Bft) 100 %
11.08.2017 04:40 12,6 C 12,6 C 12,7 C 90 % 1015,7 hPa 0,0 l/m 3,0 km/h (1 Bft) W 262 0 min 0,000 mm 0 W/m 11,0 C 12,6 C 11,3 km/h (2 Bft) 100 %
11.08.2017 04:50 12,6 C 12,6 C 12,6 C 90 % 1015,8 hPa 0,0 l/m 1,6 km/h (1 Bft) W 271 0 min 0,000 mm 0 W/m 11,0 C 12,6 C 8,0 km/h (2 Bft) 100 %
11.08.2017 05:00 12,6 C 12,6 C 12,6 C 90 % 1015,9 hPa 0,0 l/m 1,2 km/h (1 Bft) W-SW 253 0 min 0,000 mm 0 W/m 11,0 C 12,6 C 6,4 km/h (2 Bft) 100 %
11.08.2017 05:10 12,6 C 12,6 C 12,6 C 90 % 1015,8 hPa 0,0 l/m 0,0 km/h (0 Bft) W-SW 240 0 min 0,000 mm 0 W/m 11,0 C 12,6 C 1,6 km/h (1 Bft) 100 %
11.08.2017 05:20 12,6 C 12,6 C 12,6 C 90 % 1015,8 hPa 0,0 l/m 2,2 km/h (1 Bft) W 260 0 min 0,000 mm 0 W/m 11,0 C 12,6 C 8,0 km/h (2 Bft) 100 %
11.08.2017 05:30 12,6 C 12,6 C 12,6 C 90 % 1015,7 hPa 0,0 l/m 2,7 km/h (1 Bft) W-SW 249 0 min 0,000 mm 0 W/m 11,0 C 12,6 C 11,3 km/h (2 Bft) 100 %
11.08.2017 05:40 12,6 C 12,6 C 12,6 C 90 % 1015,6 hPa 0,0 l/m 2,0 km/h (1 Bft) W-SW 251 0 min 0,000 mm 0 W/m 11,0 C 12,6 C 8,0 km/h (2 Bft) 100 %
11.08.2017 05:50 12,6 C 12,6 C 12,6 C 90 % 1015,4 hPa 0,0 l/m 3,0 km/h (1 Bft) W 264 0 min 0,000 mm 0 W/m 11,0 C 12,6 C 9,7 km/h (2 Bft) 91 %
11.08.2017 06:00 12,6 C 12,6 C 12,6 C 90 % 1015,3 hPa 0,0 l/m 2,1 km/h (1 Bft) W-NW 294 0 min 0,000 mm 0 W/m 11,0 C 12,6 C 8,0 km/h (2 Bft) 100 %
11.08.2017 06:10 12,6 C 12,6 C 12,6 C 90 % 1015,1 hPa 0,0 l/m 2,7 km/h (1 Bft) W-SW 255 0 min 0,000 mm 0 W/m 11,0 C 12,6 C 9,7 km/h (2 Bft) 100 %
11.08.2017 06:20 12,6 C 12,6 C 12,6 C 90 % 1015,0 hPa 0,0 l/m 2,5 km/h (1 Bft) SW 228 0 min 0,000 mm 0 W/m 11,0 C 12,6 C 8,0 km/h (2 Bft) 100 %
11.08.2017 06:30 12,6 C 12,6 C 12,6 C 90 % 1014,9 hPa 0,0 l/m 2,7 km/h (1 Bft) W-SW 256 0 min 0,000 mm 0 W/m 11,0 C 12,6 C 9,7 km/h (2 Bft) 100 %
11.08.2017 06:40 12,6 C 12,6 C 12,6 C 90 % 1015,1 hPa 0,0 l/m 0,2 km/h (0 Bft) W-SW 254 0 min 0,000 mm 0 W/m 11,0 C 12,6 C 4,8 km/h (1 Bft) 100 %
11.08.2017 06:50 12,6 C 12,6 C 12,6 C 90 % 1015,2 hPa 0,0 l/m 3,5 km/h (1 Bft) W 274 0 min 0,000 mm 0 W/m 11,0 C 12,6 C 14,5 km/h (3 Bft) 100 %
11.08.2017 07:00 12,6 C 12,6 C 12,6 C 90 % 1015,4 hPa 0,0 l/m 1,1 km/h (1 Bft) W 262 0 min 0,000 mm 0 W/m 11,0 C 12,6 C 11,3 km/h (2 Bft) 100 %
11.08.2017 07:10 12,6 C 12,6 C 12,6 C 90 % 1015,5 hPa 0,0 l/m 3,1 km/h (1 Bft) W-NW 298 0 min 0,000 mm 7 W/m 11,0 C 12,6 C 14,5 km/h (3 Bft) 100 %
11.08.2017 07:20 12,6 C 12,6 C 12,6 C 90 % 1015,5 hPa 0,0 l/m 0,9 km/h (0 Bft) W 269 0 min 0,000 mm 9 W/m 11,0 C 12,6 C 6,4 km/h (2 Bft) 100 %
11.08.2017 07:30 12,6 C 12,6 C 12,6 C 90 % 1015,5 hPa 0,0 l/m 1,8 km/h (1 Bft) W 262 0 min 0,000 mm 12 W/m 11,0 C 12,6 C 8,0 km/h (2 Bft) 100 %
11.08.2017 07:40 12,6 C 12,6 C 12,6 C 90 % 1015,5 hPa 0,0 l/m 1,2 km/h (1 Bft) SW 232 0 min 0,000 mm 19 W/m 11,0 C 12,6 C 8,0 km/h (2 Bft) 100 %
11.08.2017 07:50 12,6 C 12,6 C 12,6 C 90 % 1015,4 hPa 0,0 l/m 0,0 km/h (0 Bft) SW 232 0 min 0,000 mm 16 W/m 11,0 C 12,6 C 0,0 km/h (0 Bft) 100 %
11.08.2017 08:00 12,7 C 12,6 C 12,7 C 90 % 1015,4 hPa 0,0 l/m 0,0 km/h (0 Bft) W 262 0 min 0,000 mm 21 W/m 11,1 C 12,7 C 0,0 km/h (0 Bft) 100 %
11.08.2017 08:10 12,7 C 12,7 C 12,7 C 90 % 1015,4 hPa 0,0 l/m 0,0 km/h (0 Bft) W 262 0 min 0,000 mm 21 W/m 11,1 C 12,7 C 0,0 km/h (0 Bft) 100 %
11.08.2017 08:20 12,8 C 12,7 C 12,8 C 90 % 1015,2 hPa 0,0 l/m 1,0 km/h (0 Bft) W-NW 298 0 min 0,000 mm 26 W/m 11,2 C 12,8 C 6,4 km/h (2 Bft) 100 %
11.08.2017 08:30 12,8 C 12,8 C 12,8 C 90 % 1015,1 hPa 0,0 l/m 1,2 km/h (1 Bft) NW 307 0 min 0,000 mm 32 W/m 11,2 C 12,8 C 9,7 km/h (2 Bft) 99 %
11.08.2017 08:40 12,8 C 12,8 C 12,9 C 90 % 1015,0 hPa 0,0 l/m 2,3 km/h (1 Bft) W 267 0 min 0,000 mm 62 W/m 11,2 C 12,8 C 9,7 km/h (2 Bft) 100 %
11.08.2017 08:50 12,8 C 12,8 C 12,9 C 90 % 1015,1 hPa 0,0 l/m 2,4 km/h (1 Bft) W-NW 295 0 min 0,000 mm 39 W/m 11,2 C 12,8 C 8,0 km/h (2 Bft) 100 %
11.08.2017 09:00 12,8 C 12,8 C 12,8 C 90 % 1015,1 hPa 0,0 l/m 1,0 km/h (0 Bft) W-SW 242 0 min 0,026 mm 25 W/m 11,2 C 12,8 C 9,7 km/h (2 Bft) 100 %
11.08.2017 09:10 12,8 C 12,8 C 12,8 C 90 % 1015,3 hPa 0,0 l/m 1,1 km/h (1 Bft) W-NW 286 0 min 0,000 mm 37 W/m 11,2 C 12,8 C 8,0 km/h (2 Bft) 100 %
11.08.2017 09:20 12,8 C 12,8 C 12,8 C 90 % 1015,2 hPa 0,0 l/m 0,4 km/h (0 Bft) W-NW 286 0 min 0,000 mm 32 W/m 11,2 C 12,8 C 6,4 km/h (2 Bft) 100 %
11.08.2017 09:30 12,8 C 12,8 C 12,8 C 90 % 1015,1 hPa 0,0 l/m 0,0 km/h (0 Bft) W-NW 282 0 min 0,000 mm 69 W/m 11,2 C 12,8 C 0,0 km/h (0 Bft) 100 %
11.08.2017 09:40 13,0 C 12,8 C 13,0 C 89 % 1014,8 hPa 0,0 l/m 0,0 km/h (0 Bft) W-NW 282 0 min 0,000 mm 125 W/m 11,2 C 13,0 C 0,0 km/h (0 Bft) 100 %
11.08.2017 09:50 13,2 C 13,0 C 13,2 C 90 % 1014,9 hPa 0,2 l/m 1,2 km/h (1 Bft) W 281 0 min 0,000 mm 128 W/m 11,6 C 13,2 C 8,0 km/h (2 Bft) 91 %
11.08.2017 10:00 13,3 C 13,2 C 13,3 C 90 % 1014,6 hPa 0,0 l/m 0,8 km/h (0 Bft) W 271 0 min 0,025 mm 98 W/m 11,7 C 13,3 C 6,4 km/h (2 Bft) 100 %
11.08.2017 10:10 13,4 C 13,3 C 13,4 C 89 % 1015,0 hPa 0,0 l/m 1,5 km/h (1 Bft) W 267 0 min 0,000 mm 83 W/m 11,6 C 13,4 C 9,7 km/h (2 Bft) 100 %
11.08.2017 10:20 13,4 C 13,4 C 13,4 C 89 % 1014,8 hPa 0,0 l/m 2,0 km/h (1 Bft) W 273 0 min 0,000 mm 107 W/m 11,6 C 13,4 C 8,0 km/h (2 Bft) 100 %
11.08.2017 10:30 13,5 C 13,4 C 13,5 C 89 % 1014,8 hPa 0,0 l/m 0,5 km/h (0 Bft) W 277 0 min 0,000 mm 88 W/m 11,7 C 13,5 C 4,8 km/h (1 Bft) 100 %
11.08.2017 10:40 13,4 C 13,4 C 13,5 C 89 % 1014,8 hPa 0,0 l/m 3,0 km/h (1 Bft) W-NW 286 0 min 0,000 mm 72 W/m 11,6 C 13,4 C 16,1 km/h (3 Bft) 99 %
11.08.2017 10:50 13,5 C 13,4 C 13,5 C 89 % 1015,1 hPa 0,0 l/m 0,0 km/h (0 Bft) W 275 0 min 0,000 mm 63 W/m 11,7 C 13,5 C 1,6 km/h (1 Bft) 100 %
11.08.2017 11:00 13,6 C 13,5 C 13,6 C 89 % 1015,2 hPa 0,0 l/m 0,6 km/h (0 Bft) SW 234 0 min 0,051 mm 58 W/m 11,8 C 13,6 C 4,8 km/h (1 Bft) 100 %
11.08.2017 11:10 13,6 C 13,6 C 13,6 C 89 % 1014,9 hPa 0,0 l/m 1,5 km/h (1 Bft) W-NW 284 0 min 0,000 mm 58 W/m 11,8 C 13,6 C 6,4 km/h (2 Bft) 100 %
11.08.2017 11:20 13,6 C 13,6 C 13,6 C 89 % 1014,9 hPa 0,0 l/m 2,0 km/h (1 Bft) W-SW 255 0 min 0,000 mm 62 W/m 11,8 C 13,6 C 8,0 km/h (2 Bft) 100 %
11.08.2017 11:30 13,7 C 13,6 C 13,7 C 89 % 1015,1 hPa 0,0 l/m 1,1 km/h (1 Bft) W-SW 256 0 min 0,000 mm 53 W/m 11,9 C 13,7 C 8,0 km/h (2 Bft) 100 %
11.08.2017 11:40 13,7 C 13,6 C 13,7 C 89 % 1015,2 hPa 0,0 l/m 1,0 km/h (0 Bft) W-SW 254 0 min 0,000 mm 46 W/m 11,9 C 13,7 C 6,4 km/h (2 Bft) 100 %
11.08.2017 11:50 13,7 C 13,7 C 13,7 C 89 % 1015,3 hPa 0,0 l/m 1,2 km/h (1 Bft) W-SW 247 0 min 0,000 mm 46 W/m 11,9 C 13,7 C 8,0 km/h (2 Bft) 100 %
11.08.2017 12:00 13,8 C 13,7 C 13,8 C 89 % 1014,9 hPa 0,0 l/m 0,6 km/h (0 Bft) W 273 0 min 0,025 mm 93 W/m 12,0 C 13,8 C 6,4 km/h (2 Bft) 100 %
11.08.2017 12:10 13,9 C 13,8 C 13,9 C 89 % 1015,0 hPa 0,0 l/m 2,5 km/h (1 Bft) W 269 0 min 0,000 mm 90 W/m 12,1 C 13,9 C 9,7 km/h (2 Bft) 100 %
11.08.2017 12:20 14,1 C 13,9 C 14,1 C 89 % 1014,8 hPa 0,0 l/m 0,6 km/h (0 Bft) W 270 0 min 0,000 mm 84 W/m 12,3 C 14,1 C 9,7 km/h (2 Bft) 100 %
11.08.2017 12:30 14,1 C 14,1 C 14,1 C 89 % 1014,9 hPa 0,0 l/m 3,9 km/h (1 Bft) W 278 0 min 0,000 mm 81 W/m 12,3 C 14,1 C 9,7 km/h (2 Bft) 100 %
11.08.2017 12:40 14,1 C 14,1 C 14,1 C 89 % 1014,7 hPa 0,0 l/m 3,3 km/h (1 Bft) W 274 0 min 0,000 mm 74 W/m 12,3 C 14,1 C 8,0 km/h (2 Bft) 100 %
11.08.2017 12:50 14,1 C 14,1 C 14,1 C 89 % 1014,5 hPa 0,0 l/m 3,5 km/h (1 Bft) W-NW 285 0 min 0,000 mm 84 W/m 12,3 C 14,1 C 9,7 km/h (2 Bft) 100 %
11.08.2017 13:00 14,2 C 14,1 C 14,2 C 89 % 1014,6 hPa 0,0 l/m 2,9 km/h (1 Bft) W-SW 254 0 min 0,051 mm 70 W/m 12,4 C 14,2 C 9,7 km/h (2 Bft) 100 %
11.08.2017 13:10 14,3 C 14,2 C 14,3 C 89 % 1014,5 hPa 0,0 l/m 1,8 km/h (1 Bft) W 277 0 min 0,000 mm 56 W/m 12,5 C 14,3 C 9,7 km/h (2 Bft) 100 %
11.08.2017 13:20 14,2 C 14,2 C 14,3 C 89 % 1014,4 hPa 0,0 l/m 3,7 km/h (1 Bft) W-NW 290 0 min 0,000 mm 54 W/m 12,4 C 14,2 C 16,1 km/h (3 Bft) 100 %
11.08.2017 13:30 14,3 C 14,2 C 14,3 C 89 % 1014,5 hPa 0,0 l/m 3,9 km/h (1 Bft) W 271 0 min 0,000 mm 51 W/m 12,5 C 14,3 C 16,1 km/h (3 Bft) 100 %
11.08.2017 13:40 14,3 C 14,2 C 14,3 C 89 % 1014,6 hPa 0,0 l/m 5,5 km/h (1 Bft) W-SW 254 0 min 0,000 mm 51 W/m 12,5 C 14,3 C 16,1 km/h (3 Bft) 100 %
11.08.2017 13:50 14,3 C 14,3 C 14,3 C 89 % 1014,5 hPa 0,0 l/m 4,1 km/h (1 Bft) W-NW 299 0 min 0,000 mm 49 W/m 12,5 C 14,3 C 17,7 km/h (3 Bft) 100 %
11.08.2017 14:00 14,3 C 14,3 C 14,3 C 89 % 1014,5 hPa 0,0 l/m 5,4 km/h (1 Bft) W-NW 300 0 min 0,000 mm 44 W/m 12,5 C 14,3 C 19,3 km/h (3 Bft) 100 %
11.08.2017 14:10 14,3 C 14,3 C 14,3 C 89 % 1014,6 hPa 0,0 l/m 5,0 km/h (1 Bft) W 265 0 min 0,025 mm 53 W/m 12,5 C 14,3 C 16,1 km/h (3 Bft) 100 %
11.08.2017 14:20 14,3 C 14,3 C 14,3 C 89 % 1014,6 hPa 0,0 l/m 3,9 km/h (1 Bft) W 279 0 min 0,000 mm 46 W/m 12,5 C 14,3 C 14,5 km/h (3 Bft) 100 %
11.08.2017 14:30 14,3 C 14,3 C 14,3 C 89 % 1014,6 hPa 0,0 l/m 0,0 km/h (0 Bft) W-NW 285 0 min 0,000 mm 40 W/m 12,5 C 14,3 C 1,6 km/h (1 Bft) 100 %
11.08.2017 14:40 14,3 C 14,3 C 14,3 C 89 % 1014,5 hPa 0,0 l/m 1,0 km/h (0 Bft) W-NW 294 0 min 0,000 mm 46 W/m 12,5 C 14,3 C 6,4 km/h (2 Bft) 100 %
11.08.2017 14:50 14,3 C 14,3 C 14,3 C 89 % 1014,5 hPa 0,0 l/m 4,2 km/h (1 Bft) W 266 0 min 0,000 mm 35 W/m 12,5 C 14,3 C 11,3 km/h (2 Bft) 100 %
11.08.2017 15:00 14,3 C 14,3 C 14,3 C 89 % 1014,6 hPa 0,0 l/m 2,2 km/h (1 Bft) W-NW 290 0 min 0,026 mm 47 W/m 12,5 C 14,3 C 8,0 km/h (2 Bft) 100 %
11.08.2017 15:10 14,4 C 14,3 C 14,4 C 89 % 1014,4 hPa 0,0 l/m 0,0 km/h (0 Bft) W-NW 288 0 min 0,000 mm 49 W/m 12,6 C 14,4 C 0,0 km/h (0 Bft) 100 %
11.08.2017 15:20 14,4 C 14,4 C 14,4 C 89 % 1014,4 hPa 0,2 l/m 0,0 km/h (0 Bft) W-NW 288 0 min 0,000 mm 42 W/m 12,6 C 14,4 C 0,0 km/h (0 Bft) 100 %
11.08.2017 15:30 14,4 C 14,4 C 14,4 C 89 % 1014,5 hPa 0,4 l/m 0,2 km/h (0 Bft) W-SW 240 0 min 0,000 mm 46 W/m 12,6 C 14,4 C 4,8 km/h (1 Bft) 100 %
11.08.2017 15:40 14,4 C 14,3 C 14,4 C 89 % 1014,5 hPa 0,4 l/m 0,0 km/h (0 Bft) SW 217 0 min 0,000 mm 30 W/m 12,6 C 14,4 C 1,6 km/h (1 Bft) 100 %
11.08.2017 15:50 14,3 C 14,3 C 14,4 C 89 % 1014,5 hPa 0,2 l/m 0,0 km/h (0 Bft) W-SW 240 0 min 0,000 mm 23 W/m 12,5 C 14,3 C 0,0 km/h (0 Bft) 100 %
11.08.2017 16:00 14,2 C 14,2 C 14,3 C 89 % 1014,8 hPa 0,6 l/m 1,8 km/h (1 Bft) W-SW 257 0 min 0,025 mm 39 W/m 12,4 C 14,2 C 8,0 km/h (2 Bft) 100 %
11.08.2017 16:10 14,2 C 14,1 C 14,2 C 89 % 1014,7 hPa 0,2 l/m 0,9 km/h (0 Bft) W-NW 300 0 min 0,000 mm 30 W/m 12,4 C 14,2 C 9,7 km/h (2 Bft) 100 %
11.08.2017 16:20 14,1 C 14,1 C 14,2 C 89 % 1014,8 hPa 0,2 l/m 4,2 km/h (1 Bft) W 263 0 min 0,000 mm 39 W/m 12,3 C 14,1 C 9,7 km/h (2 Bft) 100 %
11.08.2017 16:30 14,1 C 14,1 C 14,1 C 89 % 1014,7 hPa 0,0 l/m 2,5 km/h (1 Bft) W-SW 252 0 min 0,000 mm 65 W/m 12,3 C 14,1 C 11,3 km/h (2 Bft) 99 %
11.08.2017 16:40 14,1 C 14,1 C 14,1 C 89 % 1014,7 hPa 0,0 l/m 3,8 km/h (1 Bft) W-SW 252 10 min 0,000 mm 199 W/m 12,3 C 14,1 C 16,1 km/h (3 Bft) 99 %
11.08.2017 16:50 14,3 C 14,1 C 14,3 C 90 % 1014,7 hPa 0,0 l/m 4,7 km/h (1 Bft) W 274 0 min 0,000 mm 146 W/m 12,7 C 14,3 C 14,5 km/h (3 Bft) 94 %
11.08.2017 17:00 14,5 C 14,3 C 14,5 C 89 % 1014,5 hPa 0,0 l/m 4,7 km/h (1 Bft) W 263 0 min 0,051 mm 132 W/m 12,7 C 14,5 C 14,5 km/h (3 Bft) 97 %
11.08.2017 17:10 14,6 C 14,5 C 14,6 C 89 % 1014,7 hPa 0,0 l/m 3,1 km/h (1 Bft) W-NW 283 0 min 0,000 mm 113 W/m 12,8 C 14,6 C 9,7 km/h (2 Bft) 100 %
11.08.2017 17:20 14,7 C 14,6 C 14,7 C 89 % 1014,6 hPa 0,0 l/m 2,5 km/h (1 Bft) W 269 0 min 0,000 mm 63 W/m 12,9 C 14,7 C 11,3 km/h (2 Bft) 100 %
11.08.2017 17:30 14,7 C 14,7 C 14,7 C 89 % 1014,6 hPa 0,0 l/m 2,6 km/h (1 Bft) W 272 0 min 0,000 mm 83 W/m 12,9 C 14,7 C 9,7 km/h (2 Bft) 100 %
11.08.2017 17:40 14,7 C 14,7 C 14,8 C 89 % 1014,7 hPa 0,0 l/m 4,6 km/h (1 Bft) NW 309 0 min 0,000 mm 69 W/m 12,9 C 14,7 C 11,3 km/h (2 Bft) 100 %
11.08.2017 17:50 14,8 C 14,7 C 14,8 C 89 % 1014,7 hPa 0,0 l/m 5,6 km/h (1 Bft) W-NW 286 0 min 0,000 mm 93 W/m 13,0 C 14,8 C 14,5 km/h (3 Bft) 100 %
11.08.2017 18:00 14,8 C 14,8 C 14,8 C 89 % 1014,8 hPa 0,0 l/m 4,3 km/h (1 Bft) W 267 0 min 0,051 mm 72 W/m 13,0 C 14,8 C 16,1 km/h (3 Bft) 100 %
11.08.2017 18:10 14,9 C 14,8 C 14,9 C 89 % 1014,7 hPa 0,0 l/m 3,2 km/h (1 Bft) W-NW 300 0 min 0,000 mm 86 W/m 13,1 C 14,9 C 14,5 km/h (3 Bft) 100 %
11.08.2017 18:20 14,9 C 14,9 C 14,9 C 89 % 1014,8 hPa 0,0 l/m 3,5 km/h (1 Bft) W-SW 254 0 min 0,000 mm 35 W/m 13,1 C 14,9 C 11,3 km/h (2 Bft) 100 %
11.08.2017 18:30 14,9 C 14,8 C 14,9 C 89 % 1014,8 hPa 0,6 l/m 5,2 km/h (1 Bft) NW 306 0 min 0,000 mm 49 W/m 13,1 C 14,9 C 11,3 km/h (2 Bft) 100 %
11.08.2017 18:40 14,8 C 14,8 C 14,9 C 89 % 1014,8 hPa 0,2 l/m 3,7 km/h (1 Bft) NW 306 0 min 0,000 mm 56 W/m 13,0 C 14,8 C 14,5 km/h (3 Bft) 100 %
11.08.2017 18:50 14,7 C 14,7 C 14,8 C 89 % 1014,9 hPa 0,4 l/m 4,0 km/h (1 Bft) W-SW 250 0 min 0,000 mm 40 W/m 12,9 C 14,7 C 12,9 km/h (3 Bft) 100 %
11.08.2017 19:00 14,5 C 14,5 C 14,7 C 89 % 1015,0 hPa 0,0 l/m 6,9 km/h (2 Bft) W-NW 286 0 min 0,025 mm 19 W/m 12,7 C 14,2 C 19,3 km/h (3 Bft) 100 %
11.08.2017 19:10 14,4 C 14,4 C 14,5 C 89 % 1015,1 hPa 0,0 l/m 5,7 km/h (1 Bft) W-NW 301 0 min 0,000 mm 25 W/m 12,6 C 14,4 C 11,3 km/h (2 Bft) 100 %
11.08.2017 19:20 14,3 C 14,3 C 14,4 C 89 % 1015,1 hPa 0,2 l/m 7,9 km/h (2 Bft) NW 308 0 min 0,000 mm 14 W/m 12,5 C 13,4 C 16,1 km/h (3 Bft) 100 %
11.08.2017 19:30 14,2 C 14,2 C 14,3 C 89 % 1015,1 hPa 0,0 l/m 6,6 km/h (2 Bft) W-NW 299 0 min 0,000 mm 14 W/m 12,4 C 14,1 C 16,1 km/h (3 Bft) 100 %
11.08.2017 19:40 14,2 C 14,2 C 14,3 C 89 % 1015,2 hPa 0,0 l/m 6,2 km/h (2 Bft) W 280 0 min 0,000 mm 11 W/m 12,4 C 14,2 C 14,5 km/h (3 Bft) 100 %
11.08.2017 19:50 14,1 C 14,1 C 14,2 C 89 % 1015,1 hPa 0,2 l/m 9,0 km/h (2 Bft) NW 318 0 min 0,000 mm 7 W/m 12,3 C 12,6 C 19,3 km/h (3 Bft) 100 %
11.08.2017 20:00 13,9 C 13,8 C 14,1 C 89 % 1015,2 hPa 0,0 l/m 10,4 km/h (2 Bft) NW 311 0 min 0,026 mm 7 W/m 12,1 C 11,7 C 19,3 km/h (3 Bft) 100 %
11.08.2017 20:10 13,7 C 13,7 C 13,9 C 89 % 1015,4 hPa 0,2 l/m 5,1 km/h (1 Bft) N-NW 334 0 min 0,000 mm 5 W/m 11,9 C 13,7 C 16,1 km/h (3 Bft) 100 %
11.08.2017 20:20 13,6 C 13,6 C 13,7 C 90 % 1015,6 hPa 0,2 l/m 4,8 km/h (1 Bft) NW 325 0 min 0,000 mm 0 W/m 12,0 C 13,6 C 11,3 km/h (2 Bft) 100 %
11.08.2017 20:30 13,5 C 13,5 C 13,6 C 89 % 1015,7 hPa 0,0 l/m 4,8 km/h (1 Bft) NW 313 0 min 0,000 mm 0 W/m 11,7 C 13,5 C 12,9 km/h (3 Bft) 100 %
11.08.2017 20:40 13,4 C 13,4 C 13,5 C 89 % 1015,8 hPa 0,2 l/m 1,2 km/h (1 Bft) NW 313 0 min 0,000 mm 0 W/m 11,6 C 13,4 C 8,0 km/h (2 Bft) 100 %
11.08.2017 20:50 13,3 C 13,3 C 13,4 C 90 % 1015,9 hPa 0,0 l/m 0,2 km/h (0 Bft) NW 313 0 min 0,000 mm 0 W/m 11,7 C 13,3 C 6,4 km/h (2 Bft) 100 %
11.08.2017 21:00 13,3 C 13,2 C 13,3 C 90 % 1016,3 hPa 0,2 l/m 0,0 km/h (0 Bft) NW 313 0 min 0,000 mm 0 W/m 11,7 C 13,3 C 0,0 km/h (0 Bft) 100 %
11.08.2017 21:10 13,2 C 13,2 C 13,3 C 90 % 1016,4 hPa 0,0 l/m 0,0 km/h (0 Bft) NW 311 0 min 0,000 mm 0 W/m 11,6 C 13,2 C 0,0 km/h (0 Bft) 100 %
11.08.2017 21:20 13,2 C 13,1 C 13,2 C 89 % 1016,6 hPa 0,2 l/m 0,0 km/h (0 Bft) NW 309 0 min 0,000 mm 0 W/m 11,4 C 13,2 C 1,6 km/h (1 Bft) 100 %
11.08.2017 21:30 13,1 C 13,1 C 13,2 C 89 % 1016,7 hPa 0,0 l/m 0,0 km/h (0 Bft) NW 309 0 min 0,000 mm 0 W/m 11,3 C 13,1 C 0,0 km/h (0 Bft) 99 %
11.08.2017 21:40 13,1 C 13,1 C 13,1 C 89 % 1016,7 hPa 0,0 l/m 0,0 km/h (0 Bft) NW 309 0 min 0,000 mm 0 W/m 11,3 C 13,1 C 0,0 km/h (0 Bft) 100 %
11.08.2017 21:50 13,1 C 13,1 C 13,1 C 89 % 1016,7 hPa 0,2 l/m 0,0 km/h (0 Bft) NW 309 0 min 0,000 mm 0 W/m 11,3 C 13,1 C 0,0 km/h (0 Bft) 100 %
11.08.2017 22:00 13,0 C 13,0 C 13,1 C 89 % 1016,7 hPa 0,0 l/m 0,0 km/h (0 Bft) NW 309 0 min 0,000 mm 0 W/m 11,2 C 13,0 C 0,0 km/h (0 Bft) 100 %
11.08.2017 22:10 13,0 C 13,0 C 13,0 C 90 % 1016,7 hPa 0,0 l/m 0,0 km/h (0 Bft) NW 309 0 min 0,000 mm 0 W/m 11,4 C 13,0 C 0,0 km/h (0 Bft) 100 %
11.08.2017 22:20 12,9 C 12,9 C 13,0 C 90 % 1016,8 hPa 0,0 l/m 0,0 km/h (0 Bft) NW 309 0 min 0,000 mm 0 W/m 11,3 C 12,9 C 0,0 km/h (0 Bft) 100 %
11.08.2017 22:30 12,9 C 12,9 C 12,9 C 90 % 1016,7 hPa 0,0 l/m 0,0 km/h (0 Bft) NW 306 0 min 0,000 mm 0 W/m 11,3 C 12,9 C 0,0 km/h (0 Bft) 100 %
11.08.2017 22:40 12,8 C 12,8 C 12,9 C 90 % 1016,8 hPa 0,0 l/m 0,0 km/h (0 Bft) W-NW 295 0 min 0,000 mm 0 W/m 11,2 C 12,8 C 0,0 km/h (0 Bft) 100 %
11.08.2017 22:50 12,8 C 12,8 C 12,8 C 90 % 1016,7 hPa 0,0 l/m 0,0 km/h (0 Bft) W-NW 295 0 min 0,000 mm 0 W/m 11,2 C 12,8 C 1,6 km/h (1 Bft) 100 %
11.08.2017 23:00 12,8 C 12,8 C 12,8 C 90 % 1016,7 hPa 0,0 l/m 1,2 km/h (1 Bft) W-SW 252 0 min 0,000 mm 0 W/m 11,2 C 12,8 C 4,8 km/h (1 Bft) 100 %
11.08.2017 23:10 12,8 C 12,8 C 12,8 C 90 % 1016,8 hPa 0,0 l/m 0,8 km/h (0 Bft) W-SW 250 0 min 0,000 mm 0 W/m 11,2 C 12,8 C 4,8 km/h (1 Bft) 100 %
11.08.2017 23:20 12,8 C 12,8 C 12,8 C 90 % 1016,7 hPa 0,0 l/m 0,0 km/h (0 Bft) W-SW 250 0 min 0,000 mm 0 W/m 11,2 C 12,8 C 0,0 km/h (0 Bft) 100 %
11.08.2017 23:30 12,8 C 12,8 C 12,8 C 90 % 1016,6 hPa 0,0 l/m 0,0 km/h (0 Bft) W-SW 250 0 min 0,000 mm 0 W/m 11,2 C 12,8 C 1,6 km/h (1 Bft) 100 %
11.08.2017 23:40 12,8 C 12,8 C 12,8 C 90 % 1016,6 hPa 0,0 l/m 0,0 km/h (0 Bft) W-SW 250 0 min 0,000 mm 0 W/m 11,2 C 12,8 C 0,0 km/h (0 Bft) 100 %
11.08.2017 23:50 12,8 C 12,8 C 12,8 C 90 % 1016,6 hPa 0,0 l/m 0,0 km/h (0 Bft) W-SW 250 0 min 0,000 mm 0 W/m 11,2 C 12,8 C 1,6 km/h (1 Bft) 100 %
_ Min-Zeit 04:30 04:30 04:50 09:40 13:20 - 00:50 - - - - - 04:30 20:00 00:50 09:50
Minimum _ 12,6 C 12,6 C 12,6 C 89 % 1014,4 hPa - 0,0 km/h (0 Bft) - - - - - 11,0 C 11,7 C 0,0 km/h (0 Bft) 91 %
_ Max-Zeit 18:10 18:20 18:10 00:00 00:40 00:10 20:00 - - 16:40 00:10 16:40 18:10 18:10 14:00 00:00
Maximum _ 14,9 C 14,9 C 14,9 C 90 % 1017,6 hPa 12,4 l/m 10,4 km/h
NW (2 Bft)
- - 10 min 0,330 mm 199 W/m 13,1 C 14,9 C 19,3 km/h
W-NW (3 Bft)
100 %
Durchschnitt _ 13,4 C 13,4 C 13,4 C 90 % 1015,6 hPa #17,6 l/m 2,2 km/h (1 Bft) W - #10 min. #0,737 mm 55 W/m 11,7 C 13,4 C 8,2 km/h (2 Bft) 100 %
PRIVATE WETTERSTATION BILLIGHEIM-ALLFELD - www.neckar-odenwald-wetter.de - Holger Sonntag